Weather in Ploty

Russia / Lipetsk Oblast     52°54′20″N   38°14′24″E
temp.,
°C
wind,
m/s
gust,
m/s
humid.,
%
clouds,
%
prec.,
mm/h
press.,
hPa
HPBL,
m
16 june, wed
wed1600:00+17nw228999 2.4 101025
03:00+16nnw3493100 2.4 101068
06:00+17nnw369393 0.0 1010181
09:00+21nnw458185 0.0 1011483
12:00+22n5673100 2.1 1011909
15:00+23n4670100 4.2 10121245
18:00+21nne468099 1.3 1013584
21:00+18n4993100 1.4 1015226
17 june, thu
thu1700:00+15nne39944 0.0 1017176
03:00+14ne412890 0.0 1018257
06:00+13nne411820 0.0 1020274
09:00+17ne610680 0.0 1021548
12:00+21ne67560 0.0 10221191
15:00+21ne67550 0.0 10231375
18:00+20ne57700 0.0 10231012
21:00+15ne35865 0.0 102482
18 june, fri
fri1800:00+13ne48860 0.0 1026141
03:00+12ene37860 0.0 1026107
06:00+13ene38820 0.0 1027228
09:00+18e57670 0.0 1028567
12:00+21e56570 0.0 10281193
15:00+22e45560 0.0 10271438
18:00+21e45692 0.0 1027943
21:00+16e33825 0.0 102735
19 june, sat
sat1900:00+14ese33886 0.0 102838
03:00+13sse22903 0.0 102817
06:00+15ese238440 0.0 1029103
09:00+19e35675 0.0 1029550
12:00+21ese45570 0.0 10281076
15:00+22ese44561 0.0 10271141
18:00+22ese34683 0.0 10261025
21:00+17se22844 0.0 102611
20 june, sun
sun2000:00+15se22885 0.0 102718
03:00+14ese22892 0.0 102715
06:00+15ese23860 0.0 1027106
09:00+20ese35700 0.0 1026539
12:00+23se45590 0.0 10251090
15:00+24se45571 0.0 10241236
18:00+23ese356987 0.0 1023413
21:00+19ese3380100 0.0 102330